Temp
74 73 72 72 72 71 71 70 70 70 70 70 70 71 71 70 70 68 68 69 68 67 67 65 64 65 65 66 64 65 62 62 55 63 64 67 64 60 60 65 65 64 63
75 73 72 72 71 70 70 70 71 70 71 71 71 71 71 70 69 68 68 69 68 67 67 66 65 68 62 62 66 58 63 64 55 53 60 60 61 61 64 62 64 65 62
75 73 71 71 70 69 70 70 71 71 71 71 70 69 70 70 69 69 69 69 68 68 67 66 66 64 61 60 63 64 63 61 59 61 60 65 60 65 63 59 61 61 61
74 72 70 70 70 70 70 70 71 71 71 70 70 71 70 70 70 70 70 68 68 68 68 66 63 62 57 62 64 63 63 61 63 63 62 64 61 64 62 55 58 60 59
73 71 70 71 71 71 71 71 71 71 71 72 71 71 70 70 72 70 69 68 67 66 66 66 64 62 62 60 64 62 61 61 61 61 60 60 60 58 55 57 55 57 56
73 71 71 71 71 70 70 70 70 70 70 71 70 70 70 72 56 58 60 66 66 65 64 65 66 63 63 59 58 57 58 59 57 59 57 53 55 54 55 55 54 51 49
71 71 71 70 70 70 70 70 69 68 69 68 69 70 69 69 57 55 54 65 65 65 65 64 65 67 63 66 61 58 57 55 55 57 53 53 54 55 55 52 52 51 49
71 71 71 70 70 70 70 68 68 68 68 67 68 68 68 70 56 53 52 65 66 67 60 66 65 64 57 60 61 61 62 63 61 61 58 58 57 57 55 54 52 51 52
72 71 71 71 70 70 69 67 67 66 68 68 68 68 68 69 56 52 54 66 67 67 63 64 66 62 46 48 58 58 59 59 59 55 52 49 48 47 49 54 52 46 43
72 72 72 72 71 70 69 66 65 68 68 70 69 69 65 68 52 50 53 67 66 65 65 60 48 55 46 46 55 56 54 56 57 57 55 55 53 55 50 52 49 43 42
72 73 72 72 71 70 69 66 67 68 68 67 68 69 70 65 57 48 48 64 66 67 68 61 60 46 46 46 44 54 51 51 55 55 55 56 56 57 56 55 55 48 44
71 71 71 71 72 71 66 68 68 67 66 66 66 67 68 55 52 47 48 49 53 63 65 66 62 49 48 45 48 44 44 46 53 53 53 52 53 53 55 58 56 55 55
71 70 71 70 72 69 68 66 67 66 68 67 70 70 62 57 65 49 49 49 51 62 65 57 52 47 46 46 47 46 46 54 53 53 53 52 54 55 57 57 55 56 56
69 70 70 69 69 69 71 70 70 70 68 67 64 58 60 70 68 68 67 63 51 59 56 62 56 54 48 50 55 55 56 55 51 48 49 53 54 55 55 56 54 53 54
69 69 68 68 69 68 70 67 70 58 58 66 67 70 66 64 58 50 53 61 61 57 52 63 60 60 56 56 58 57 58 53 53 53 52 51 53 55 55 57 54 53 51
68 70 69 69 70 70 69 65 40 43 42 42 44 55 60 47 44 45 45 46 46 45 57 62 62 59 58 55 52 54 53 49 52 47 52 53 51 51 53 57 56 55 52
70 69 71 69 71 70 70 68 63 52 42 41 42 43 43 44 43 44 44 43 43 44 59 62 61 59 55 52 56 53 50 51 46 48 53 51 52 54 52 55 55 54 57
71 58 72 72 72 72 73 66 69 61 63 60 45 52 42 43 44 44 43 44 57 55 61 63 62 60 56 54 51 51 52 49 48 52 49 50 51 52 52 52 51 51 54
71 72 73 73 74 72 73 73 68 63 63 66 63 49 47 42 42 43 43 59 63 63 64 63 63 61 57 57 54 46 51 51 51 52 53 54 55 54 53 54 52 47 46
71 60 66 74 74 75 74 73 70 70 66 64 64 67 66 60 61 64 65 65 64 64 63 62 62 63 59 58 56 55 53 53 51 53 52 52 53 55 53 54 53 53 55
73 71 63 75 74 75 74 72 71 69 66 66 66 59 36 60 65 65 65 65 64 63 62 62 63 63 62 59 57 54 52 52 53 52 53 52 52 51 53 54 55 57 56
72 72 74 75 76 74 73 72 71 68 67 69 67 61 41 62 66 64 64 63 64 64 64 62 62 63 63 61 59 57 56 56 54 53 52 50 52 53 54 54 55 55 55
73 74 75 76 74 63 71 72 69 68 70 70 70 68 68 65 64 63 62 63 63 63 63 62 62 62 61 60 60 60 57 54 51 50 49 49 50 51 52 53 54 53 52
75 75 75 73 73 72 70 68 68 59 69 68 67 66 65 64 63 62 62 62 62 62 62 62 61 61 59 59 60 59 56 48 46 49 48 46 47 48 51 53 54 54 54
77 75 74 73 72 71 70 70 70 69 68 67 66 65 65 64 62 62 61 61 61 61 61 61 61 60 59 58 55 53 42 34 39 35 44 45 46 48 53 54 54 53 53
76 74 73 73 71 71 70 69 68 67 66 66 65 64 63 62 61 61 60 59 59 60 60 60 60 59 59 56 51 39 34 33 37 32 38 43 48 53 54 53 52 49 49
MSLP
1015.00 1015.80 1016.58 1017.22 1017.80 1018.31 1018.61 1018.88 1019.10 1019.43 1019.57 1019.61 1019.81 1019.96 1019.91 1019.93 1019.99 1020.14 1020.23 1020.25 1020.26 1020.17 1020.17 1020.12 1020.16 1019.99 1019.76 1019.58 1019.60 1019.18 1018.98 1018.70 1018.14 1017.37 1017.26 1016.82 1016.88 1016.75 1016.86 1016.58 1016.73 1016.41 1016.03
1014.43 1015.39 1016.32 1017.03 1017.61 1018.05 1018.35 1018.79 1019.04 1019.32 1019.49 1019.50 1019.71 1019.80 1019.80 1019.96 1020.18 1020.19 1020.13 1020.00 1020.15 1020.10 1019.96 1019.94 1019.81 1019.64 1019.74 1019.60 1018.98 1019.09 1018.48 1018.11 1018.04 1017.65 1017.06 1016.86 1016.46 1016.32 1015.93 1016.18 1015.89 1015.77 1015.91
1013.93 1015.04 1016.03 1016.78 1017.45 1017.85 1018.12 1018.55 1018.92 1019.05 1019.21 1019.30 1019.53 1019.70 1019.70 1019.98 1020.11 1020.19 1020.21 1020.14 1020.04 1019.99 1019.88 1019.77 1019.66 1019.46 1019.43 1019.32 1018.86 1018.59 1018.36 1017.82 1017.87 1016.77 1016.15 1015.65 1015.99 1015.51 1015.34 1015.67 1015.53 1015.40 1015.46
1013.58 1014.64 1015.58 1016.28 1016.98 1017.59 1018.00 1018.37 1018.60 1018.71 1018.71 1019.00 1019.30 1019.35 1019.54 1019.76 1019.81 1019.89 1019.88 1019.96 1019.96 1019.74 1019.57 1019.43 1019.32 1019.13 1019.75 1018.97 1018.56 1018.37 1017.84 1017.96 1017.09 1016.35 1015.70 1015.11 1015.21 1014.83 1015.05 1015.35 1015.09 1015.06 1014.84
1013.38 1014.37 1015.23 1016.03 1016.77 1017.28 1017.71 1018.06 1018.15 1018.36 1018.54 1018.65 1018.94 1019.19 1019.46 1019.58 1019.52 1019.68 1019.78 1019.73 1019.65 1019.44 1019.16 1018.98 1018.72 1018.81 1018.78 1018.71 1018.49 1018.20 1018.24 1017.73 1017.19 1016.41 1015.77 1015.41 1015.18 1015.36 1015.60 1015.67 1015.47 1014.87 1014.70
1013.14 1014.12 1015.01 1015.77 1016.47 1016.97 1017.34 1017.68 1018.02 1018.18 1018.30 1018.49 1018.71 1018.82 1018.91 1019.14 1019.65 1019.90 1020.23 1019.96 1019.64 1019.30 1018.89 1018.90 1018.71 1018.09 1018.05 1017.85 1018.29 1018.30 1018.11 1017.75 1017.40 1016.63 1016.43 1016.51 1016.00 1016.16 1016.00 1015.79 1015.42 1015.17 1014.53
1012.54 1013.53 1014.61 1015.45 1016.10 1016.59 1016.89 1017.42 1017.68 1018.02 1018.20 1018.40 1018.47 1018.50 1018.69 1019.07 1019.37 1019.65 1019.84 1019.82 1019.41 1018.82 1018.46 1018.40 1018.29 1017.81 1017.94 1017.89 1018.05 1017.90 1017.41 1017.02 1016.95 1017.13 1016.89 1016.71 1016.30 1016.32 1016.06 1015.83 1015.64 1015.44 1014.91
1013.01 1013.49 1014.27 1015.02 1015.53 1016.19 1016.57 1017.01 1017.53 1017.94 1018.17 1018.39 1018.53 1018.65 1018.72 1018.80 1019.16 1019.38 1019.44 1019.36 1018.84 1018.11 1017.76 1017.68 1017.88 1018.02 1018.66 1018.54 1018.41 1017.84 1017.18 1016.63 1016.78 1016.80 1016.78 1016.60 1016.50 1016.53 1016.40 1015.96 1015.72 1015.42 1014.99
1013.03 1013.44 1013.89 1014.60 1015.00 1015.65 1016.16 1016.82 1017.46 1017.79 1017.92 1018.18 1018.30 1018.47 1018.47 1018.50 1018.79 1019.10 1019.26 1018.66 1017.89 1017.29 1017.32 1017.39 1017.79 1018.34 1018.97 1018.97 1018.57 1017.84 1017.25 1016.63 1016.45 1016.68 1016.65 1016.64 1016.65 1016.67 1016.59 1016.08 1015.38 1015.40 1015.08
1012.27 1013.20 1013.79 1014.23 1014.60 1015.23 1015.91 1016.77 1017.30 1017.57 1017.76 1017.73 1017.76 1018.06 1018.06 1018.20 1018.46 1018.93 1019.11 1018.49 1017.48 1016.94 1016.88 1017.54 1018.20 1018.83 1019.22 1019.12 1018.75 1018.07 1017.33 1016.97 1016.90 1016.48 1016.31 1016.10 1015.97 1015.58 1015.71 1015.87 1015.50 1015.37 1015.16
1012.14 1012.89 1013.46 1013.99 1014.50 1015.11 1015.87 1016.57 1016.96 1017.30 1017.22 1017.52 1017.44 1017.62 1017.75 1018.00 1019.06 1019.18 1019.13 1018.72 1017.81 1017.19 1016.66 1017.61 1018.57 1019.13 1019.00 1018.94 1018.95 1018.47 1018.17 1017.89 1016.98 1016.55 1016.04 1015.81 1015.57 1015.23 1015.02 1014.87 1014.65 1014.85 1014.72
1011.94 1012.59 1013.23 1013.94 1014.40 1015.09 1015.88 1016.32 1016.82 1017.16 1017.31 1017.34 1017.33 1017.19 1016.97 1017.59 1018.74 1019.04 1018.93 1019.05 1018.92 1018.25 1017.26 1017.24 1017.89 1018.57 1018.74 1018.87 1018.62 1018.48 1018.08 1017.64 1016.91 1016.38 1015.95 1015.69 1015.25 1014.73 1014.47 1014.16 1013.87 1013.76 1013.53
1011.77 1012.45 1013.14 1013.86 1014.29 1015.05 1015.67 1016.33 1016.75 1017.09 1016.87 1016.71 1016.29 1016.53 1017.17 1018.22 1018.24 1018.12 1018.60 1018.72 1018.66 1018.18 1017.81 1018.01 1018.20 1018.47 1018.36 1018.44 1018.35 1018.24 1017.81 1017.19 1016.70 1016.18 1015.74 1015.49 1014.96 1014.60 1014.10 1013.57 1013.23 1012.83 1012.41
1011.69 1012.32 1013.06 1013.72 1014.33 1015.01 1015.52 1016.20 1016.07 1016.22 1016.37 1016.60 1016.90 1017.20 1017.31 1017.03 1017.31 1017.75 1018.23 1018.58 1018.46 1018.05 1018.01 1017.36 1017.78 1017.88 1018.02 1018.21 1017.97 1017.75 1017.58 1017.31 1017.21 1016.65 1015.99 1015.41 1014.75 1014.22 1013.63 1013.13 1012.72 1012.30 1011.69
1011.72 1012.31 1013.04 1013.73 1014.25 1014.95 1015.17 1016.13 1015.98 1017.20 1017.24 1017.27 1017.25 1016.81 1017.40 1017.51 1019.04 1019.30 1019.37 1019.18 1018.97 1018.53 1018.40 1017.00 1017.15 1017.09 1017.57 1017.57 1017.41 1017.25 1016.90 1017.02 1016.78 1016.50 1016.06 1015.44 1014.70 1013.93 1013.18 1012.71 1012.44 1011.90 1011.43
1011.54 1012.15 1012.81 1013.41 1013.94 1014.59 1015.34 1016.51 1017.48 1017.69 1017.93 1018.14 1018.12 1017.73 1018.85 1019.33 1019.70 1019.87 1019.90 1019.63 1019.27 1018.89 1018.14 1016.62 1016.24 1016.76 1017.10 1017.37 1017.43 1017.11 1016.93 1017.15 1016.95 1016.95 1015.89 1015.15 1014.67 1014.15 1013.41 1012.48 1011.76 1011.22 1010.82
1011.14 1011.81 1012.37 1013.01 1013.38 1014.09 1014.59 1015.55 1016.84 1018.60 1018.76 1018.84 1018.97 1019.10 1019.29 1019.78 1020.05 1020.14 1019.97 1019.66 1019.07 1018.71 1017.63 1016.53 1016.25 1016.68 1017.50 1017.75 1017.38 1017.22 1017.11 1017.11 1017.46 1016.69 1015.58 1015.15 1014.53 1013.79 1013.08 1012.30 1011.75 1011.11 1010.11
1011.14 1011.74 1012.23 1012.46 1012.96 1013.41 1013.69 1014.91 1015.76 1017.05 1017.58 1018.62 1019.48 1019.72 1019.92 1019.90 1019.81 1019.75 1019.47 1019.20 1018.44 1017.75 1017.12 1016.45 1016.28 1016.43 1017.27 1017.90 1018.16 1017.84 1017.37 1017.28 1017.13 1016.07 1015.61 1014.86 1014.08 1013.40 1012.82 1012.23 1011.80 1011.19 1010.30
1011.13 1011.66 1011.85 1012.18 1012.54 1012.78 1013.29 1013.89 1015.07 1016.04 1016.79 1017.32 1018.46 1019.58 1019.50 1019.35 1019.44 1019.33 1019.05 1018.59 1017.11 1016.71 1016.56 1016.51 1016.31 1016.26 1017.05 1017.37 1017.82 1018.28 1017.52 1016.93 1016.56 1015.91 1015.19 1014.44 1013.66 1013.09 1012.47 1011.87 1011.46 1010.74 1010.21
1011.14 1011.52 1011.62 1011.94 1012.23 1012.46 1012.89 1013.43 1014.34 1014.98 1015.85 1016.59 1017.04 1017.32 1018.02 1018.31 1018.23 1017.72 1017.40 1017.17 1017.00 1016.80 1016.73 1016.71 1016.55 1016.20 1016.63 1016.90 1017.24 1017.17 1016.80 1016.52 1016.15 1015.54 1015.13 1014.63 1013.92 1013.09 1012.46 1011.70 1011.12 1010.29 1009.51
1010.98 1011.64 1011.62 1011.65 1012.22 1012.17 1012.76 1013.64 1014.31 1015.03 1015.85 1016.35 1017.13 1018.57 1019.08 1018.66 1017.40 1017.33 1017.15 1017.12 1017.15 1017.15 1017.15 1017.17 1016.73 1016.33 1016.24 1016.50 1016.64 1016.76 1016.68 1016.25 1015.75 1015.40 1014.96 1014.61 1014.00 1013.17 1012.38 1011.61 1010.73 1009.77 1009.31
1011.10 1011.49 1011.44 1011.41 1011.78 1012.25 1013.04 1013.84 1014.44 1015.20 1015.64 1016.03 1016.88 1018.15 1018.67 1018.40 1017.50 1017.54 1017.59 1017.67 1017.73 1017.58 1017.40 1017.38 1017.05 1016.64 1016.41 1016.55 1016.43 1016.22 1015.94 1015.81 1015.80 1015.70 1015.32 1014.87 1014.02 1013.04 1012.11 1011.25 1010.40 1009.75 1009.28
1010.98 1011.05 1011.02 1011.22 1011.91 1012.92 1013.41 1014.03 1014.79 1015.25 1015.56 1016.29 1016.63 1017.02 1017.48 1017.75 1017.85 1017.98 1018.18 1018.15 1018.08 1017.91 1017.76 1017.64 1017.43 1017.04 1017.12 1017.14 1016.73 1016.19 1016.06 1016.37 1016.63 1016.36 1015.62 1014.81 1013.98 1013.07 1012.18 1011.15 1010.28 1009.70 1009.34
1010.75 1010.72 1010.82 1011.67 1012.61 1012.97 1013.73 1014.56 1015.30 1015.84 1015.94 1016.55 1017.10 1017.47 1017.89 1018.12 1018.23 1018.43 1018.60 1018.55 1018.41 1018.26 1018.02 1017.93 1017.68 1017.51 1017.50 1017.31 1016.75 1016.74 1017.04 1017.73 1017.43 1016.41 1015.74 1015.04 1013.95 1013.00 1012.10 1010.81 1009.97 1009.39 1009.02
1010.31 1010.65 1011.41 1012.19 1012.91 1013.37 1014.29 1014.76 1015.37 1015.92 1016.44 1017.00 1017.43 1017.82 1018.14 1018.37 1018.57 1018.93 1019.03 1018.92 1018.75 1018.48 1018.34 1018.12 1017.90 1017.83 1017.55 1017.27 1017.58 1017.84 1018.02 1017.88 1017.37 1016.94 1015.79 1014.89 1013.85 1012.73 1011.25 1010.22 1009.77 1009.53 1008.97
1010.60 1011.09 1011.92 1012.65 1013.34 1013.92 1014.52 1015.22 1015.89 1016.43 1016.96 1017.55 1018.01 1018.40 1018.67 1018.85 1019.17 1019.31 1019.44 1019.31 1019.11 1018.82 1018.64 1018.35 1018.12 1017.95 1017.53 1017.48 1018.19 1018.27 1017.93 1017.56 1016.92 1016.55 1015.94 1014.60 1013.03 1011.54 1010.69 1010.28 1009.94 1009.74 1009.45
Wind_Speed
15 13 12 10 9 9 8 7 6 5 5 5 4 2 1 1 2 2 2 2 3 2 4 4 3 5 4 6 6 8 7 10 9 12 9 10 10 5 5 9 9 8 8
15 14 13 11 10 9 8 8 7 7 5 5 3 3 0 0 3 4 5 4 5 5 6 7 7 8 4 6 7 5 9 9 5 12 9 9 9 5 6 6 9 7 7
16 15 13 12 11 11 10 8 8 7 6 4 4 4 3 2 4 4 5 6 6 7 8 9 10 9 5 6 9 9 10 7 9 10 9 9 7 10 5 6 6 5 6
16 15 15 14 12 11 9 9 8 7 7 6 5 5 4 5 5 5 5 6 7 9 10 9 9 6 9 13 11 10 10 11 12 11 10 10 4 7 6 4 9 8 10
16 15 14 13 12 11 10 9 9 7 6 6 6 5 5 5 7 7 5 7 9 12 11 9 9 3 9 7 10 9 10 10 11 12 12 12 10 11 11 9 10 10 10
17 15 14 13 12 11 10 9 7 8 6 5 6 6 5 7 9 3 4 9 11 13 12 12 11 12 1 12 8 11 12 10 11 10 9 10 12 9 9 10 11 9 11
15 16 15 14 13 12 11 9 9 7 6 6 5 6 6 7 9 6 6 8 11 13 13 10 10 6 8 10 10 9 13 18 17 9 9 9 12 12 11 11 10 11 9
16 16 15 14 13 12 11 9 8 6 6 5 6 6 6 7 8 9 7 10 12 14 9 10 5 7 9 8 9 13 14 12 6 6 9 9 10 10 10 10 10 10 8
16 15 15 14 14 13 11 9 6 6 6 5 5 6 7 8 8 7 6 11 12 12 4 3 3 5 8 8 9 13 14 7 5 6 8 6 9 8 9 7 7 6 8
17 15 15 14 13 12 10 8 5 6 5 6 6 7 9 8 8 6 3 9 11 3 6 9 14 9 3 3 9 12 11 11 13 11 9 6 8 7 13 9 6 6 5
13 15 15 14 12 11 9 5 7 6 5 5 6 6 9 4 10 4 3 7 8 9 9 7 7 6 4 5 7 8 10 10 11 8 8 7 9 7 7 6 7 5 7
14 16 14 13 10 9 8 7 6 6 6 7 8 8 3 8 5 6 5 3 6 8 8 7 8 8 7 4 7 8 11 11 6 7 5 7 8 7 7 7 9 9 8
16 15 15 13 10 10 9 8 7 6 8 9 7 3 4 6 6 10 8 7 8 6 5 3 5 6 11 6 9 7 11 8 6 8 8 8 7 7 11 10 8 10 9
16 15 14 13 11 10 8 8 8 9 7 4 3 1 7 1 4 3 2 6 10 8 3 8 6 2 1 2 4 5 4 5 8 6 7 8 8 7 8 7 9 7 8
13 14 13 10 11 10 5 1 4 8 6 5 6 7 7 6 6 7 7 7 7 7 9 10 7 2 5 6 6 8 6 5 6 9 9 8 9 10 9 8 8 8 7
14 13 11 11 10 9 9 8 14 11 12 10 6 5 9 10 7 6 3 7 9 9 9 7 6 6 8 9 8 9 5 6 8 8 9 8 7 8 9 11 8 7 8
13 12 11 10 9 9 9 9 7 7 10 12 12 14 14 9 3 4 7 9 14 11 10 6 7 7 6 6 9 8 7 8 9 8 8 7 7 10 9 9 10 11 12
12 11 11 10 10 9 9 9 9 8 8 7 6 5 6 7 6 9 11 8 10 11 9 7 8 6 4 7 8 9 9 4 8 8 8 8 9 8 9 9 8 10 12
13 11 10 10 10 9 8 9 8 5 7 8 7 7 8 9 9 11 11 10 7 6 7 7 8 6 5 5 4 6 9 7 8 9 10 10 11 10 11 11 9 13 12
12 12 9 10 9 8 7 6 7 6 5 5 5 2 4 9 9 7 4 4 6 6 7 8 8 7 4 4 5 6 8 9 8 8 8 9 10 12 10 13 11 12 12
11 11 7 9 8 7 7 8 5 4 3 4 8 7 5 6 6 5 5 6 7 7 7 7 8 8 6 5 6 6 7 7 8 8 10 10 10 10 11 11 13 13 12
11 11 10 9 8 8 7 7 5 5 3 3 6 7 7 7 5 6 6 7 7 7 7 7 8 8 9 10 10 9 8 9 10 11 12 12 12 13 13 12 13 12 10
12 12 10 9 9 11 6 7 5 4 4 3 3 3 2 5 5 6 6 6 7 7 7 7 8 8 9 9 9 10 11 12 12 12 13 12 13 13 13 13 11 11 10
12 10 9 11 8 7 8 6 7 8 4 5 4 4 4 4 5 6 6 6 7 7 7 7 7 10 10 10 9 11 11 11 10 11 15 13 13 14 13 13 11 13 12
11 10 10 9 8 9 7 6 6 6 5 5 4 4 5 5 6 6 6 7 6 7 8 8 7 11 12 13 16 17 13 7 10 10 11 15 15 17 14 12 13 13 14
11 11 10 8 8 7 7 6 6 6 5 5 4 5 5 6 6 6 7 7 7 8 9 8 10 13 13 12 16 13 7 9 12 12 11 11 12 12 12 13 16 11 12
Wind_Direction
170 169 165 169 170 167 177 187 178 181 193 191 209 220 45 251 207 217 8 256 284 320 290 285 278 280 335 322 324 320 315 327 308 314 312 318 310 311 277 285 292 287 294
170 168 168 169 173 177 176 177 166 177 187 194 196 240 241 262 180 225 250 3 307 310 319 315 321 337 328 290 284 278 313 293 271 285 312 295 292 250 256 292 287 318 316
169 169 170 171 179 180 177 175 179 181 181 200 189 229 218 173 203 231 273 284 294 294 294 296 303 294 288 297 303 322 302 342 305 288 291 289 272 291 351 285 281 298 285
168 172 172 175 182 183 182 178 191 202 204 183 212 223 225 224 225 236 250 266 284 286 290 281 280 312 309 290 319 315 312 323 303 309 315 304 292 322 304 298 312 315 321
169 173 173 176 181 182 183 186 198 200 209 203 213 217 227 243 239 221 274 296 298 295 292 312 298 260 281 285 290 317 314 308 311 314 313 331 339 347 337 325 312 320 311
170 173 172 176 181 182 182 192 194 205 210 216 216 236 231 247 101 114 283 286 292 294 295 301 305 300 297 243 253 253 269 283 299 306 302 322 316 331 330 322 316 324 317
169 168 172 176 181 183 182 189 201 196 206 221 245 253 240 254 168 205 221 277 286 291 293 298 294 329 16 349 338 268 263 245 251 291 313 314 324 322 327 321 325 318 310
176 171 171 177 182 182 186 189 191 194 210 221 241 240 250 251 180 218 221 274 281 279 274 281 319 23 45 5 328 319 321 323 356 311 320 314 322 329 316 310 304 299 306
184 175 172 179 181 181 184 187 182 202 206 228 242 247 242 257 203 216 229 292 290 297 358 15 9 339 44 14 325 320 311 335 339 225 260 264 266 262 264 302 303 316 304
181 176 175 180 183 179 177 174 156 216 212 245 213 225 247 265 57 118 305 297 292 294 247 107 65 51 5 333 330 321 321 341 330 312 323 278 262 265 241 251 295 284 288
175 175 174 178 180 171 164 151 183 192 260 202 259 256 265 355 60 75 50 312 338 333 326 132 94 180 238 347 310 324 328 314 304 313 297 330 314 302 308 300 267 242 271
180 174 174 167 180 155 157 167 183 203 205 227 241 254 281 118 150 101 66 22 343 324 313 14 5 10 312 330 306 326 298 293 299 298 327 312 309 304 310 303 294 274 259
173 173 163 161 171 149 162 169 189 190 246 217 232 236 39 108 172 145 180 223 238 293 4 343 248 272 278 243 239 297 299 321 327 328 324 315 309 305 301 291 288 280 263
169 164 155 164 151 162 163 178 202 194 216 116 337 240 218 129 64 87 281 226 233 273 208 263 172 229 268 277 353 339 328 353 338 302 300 314 307 311 307 313 315 302 304
167 159 157 150 170 160 143 58 61 48 35 344 25 27 0 87 69 55 28 352 340 347 319 287 170 51 16 326 342 315 332 314 328 343 325 316 312 324 324 332 316 315 308
162 159 164 157 166 175 155 131 59 58 56 56 26 37 68 80 87 60 12 305 297 297 294 297 355 19 6 350 345 333 341 10 1 325 304 313 323 311 314 309 308 306 306
165 159 159 158 165 174 167 160 140 77 71 58 57 64 64 100 103 271 272 283 285 293 257 340 340 47 13 333 343 344 344 3 341 300 314 305 301 305 304 322 327 326 326
159 153 162 159 169 180 177 161 141 160 151 122 67 112 135 169 215 255 259 260 255 233 261 349 341 53 41 3 341 331 329 346 319 316 306 305 311 314 315 321 317 314 319
151 165 168 161 170 183 165 154 153 175 145 132 149 211 202 211 216 252 281 275 334 342 357 345 341 26 23 352 334 335 304 324 315 319 327 324 324 319 321 317 315 304 296
163 157 167 171 148 183 158 137 148 152 136 178 193 77 144 200 212 228 258 348 327 351 354 346 335 344 8 358 337 311 327 324 309 321 321 321 322 323 316 315 313 313 314
152 165 179 167 159 178 137 136 149 110 128 93 70 52 331 309 336 347 342 359 351 351 353 344 329 339 353 354 352 343 313 316 323 335 329 326 320 312 312 307 306 315 321
154 168 179 162 175 134 133 126 122 126 153 123 138 138 236 265 3 357 360 359 351 343 347 341 340 338 355 355 341 330 326 328 339 330 327 321 315 315 313 314 312 319 326
163 168 173 158 110 116 139 123 122 136 92 77 60 57 27 19 7 16 353 0 344 347 346 347 338 348 1 343 334 331 352 355 342 325 315 313 312 310 314 306 315 316 321
165 174 148 114 149 150 118 123 90 48 54 94 67 46 27 17 11 16 357 358 352 346 353 347 348 357 344 345 335 9 357 349 326 315 322 310 302 312 305 301 309 315 318
163 139 127 132 153 111 124 125 115 99 88 74 66 39 35 23 23 18 359 5 353 346 353 348 355 350 351 340 24 355 354 320 310 309 304 310 300 294 291 313 324 317 309
132 128 131 138 120 133 116 111 112 108 97 84 63 46 35 27 19 21 360 10 352 350 351 350 354 352 347 20 6 344 325 325 319 311 308 298 289 305 320 327 323 331 339